Probability
0 0 0 0 0 0 0 0 0 0 0 0 0 1 1 1 1 1 2 3 3 3 3 5 9 9 6 4 3 2 1 0 0 0 0 0 0 0 0 0 0 0 0 0 0 0 0 0 0
0 0 0 0 0 0 0 0 0 0 0 0 1 2 2 2 2 2 3 3 3 3 3 5 9 9 6 3 3 2 1 0 0 0 0 0 0 0 0 0 0 0 0 0 0 0 0 0 0
0 0 0 0 0 0 0 0 0 0 1 1 1 3 3 3 3 3 3 3 3 3 3 6 9 8 5 4 4 5 4 2 0 0 0 0 0 0 0 0 0 0 0 0 0 0 0 0 0
0 0 0 0 0 0 0 0 0 1 2 2 2 3 3 5 8 8 6 3 3 4 5 8 11 10 8 7 7 6 5 2 0 0 0 0 0 0 0 0 0 0 0 0 0 0 0 0 0
0 0 0 0 0 0 1 1 2 5 4 3 3 4 4 8 15 15 8 4 4 6 7 10 14 14 12 12 9 6 5 4 3 2 1 0 1 1 0 0 0 0 0 0 0 0 0 0 0
0 0 0 0 0 0 0 1 3 7 7 4 4 5 5 10 18 17 9 4 3 5 7 9 12 14 15 14 11 8 7 7 7 5 2 1 1 1 1 0 0 0 0 1 1 1 0 0 1
0 0 0 0 0 0 0 1 3 6 8 9 8 7 5 9 16 18 13 7 4 4 5 6 8 11 13 14 12 10 9 9 9 7 4 2 1 2 2 1 1 1 1 2 3 2 0 1 2
0 0 0 0 0 0 0 1 2 7 11 14 13 9 6 10 21 29 26 18 9 5 4 6 8 10 11 11 11 11 11 10 9 7 4 3 3 3 3 4 6 6 6 7 8 7 4 4 4
0 0 0 0 0 0 0 1 4 11 16 18 17 14 11 18 35 47 44 34 22 9 4 5 8 10 9 8 8 9 11 11 10 7 5 6 6 5 4 5 8 11 13 15 16 16 15 14 14
0 0 0 0 0 0 1 2 7 16 22 21 20 21 22 30 47 58 58 49 36 19 8 4 5 6 7 8 9 10 10 12 11 9 7 8 9 7 4 3 6 11 16 21 26 30 31 29 28
0 0 0 0 1 1 4 9 15 22 27 27 29 33 35 40 49 58 62 57 47 33 20 13 11 11 11 16 20 17 15 16 16 13 12 12 12 10 7 5 8 14 21 29 38 46 48 45 43
0 0 0 1 2 5 11 20 28 33 37 43 49 53 53 51 52 58 63 62 56 49 40 34 32 28 26 30 34 30 26 28 27 22 19 18 17 16 14 12 14 21 33 43 51 56 58 55 51
0 0 0 1 4 11 21 33 42 47 54 63 69 71 69 65 62 63 66 67 66 64 62 60 58 52 47 45 44 42 42 45 44 37 30 28 26 24 20 18 19 26 38 47 52 54 53 51 49
0 0 0 0 4 14 29 42 51 58 67 77 79 77 76 73 69 68 71 73 74 74 75 76 74 69 63 59 55 54 55 59 60 54 45 41 38 34 28 24 23 28 33 38 41 40 36 35 36
0 0 0 0 2 12 29 44 51 57 68 78 79 76 74 72 71 72 73 75 76 76 76 76 74 69 66 64 63 63 63 64 64 58 52 49 47 42 34 26 25 26 27 28 28 26 23 22 22
0 0 0 1 2 8 23 37 42 47 57 65 67 67 65 63 64 65 63 63 65 64 63 65 64 59 57 57 58 59 57 54 51 46 44 47 47 40 29 20 18 19 19 18 17 16 16 15 14
0 0 0 1 3 8 18 28 33 37 43 46 46 47 47 47 46 46 45 46 47 46 44 46 48 46 45 45 45 44 40 35 31 30 32 36 36 29 19 12 10 12 11 9 8 9 10 10 10
0 0 0 2 5 11 19 25 28 29 29 27 25 26 28 29 27 25 28 31 31 29 27 28 31 32 32 32 32 29 24 20 19 19 20 22 20 16 11 7 6 6 5 4 3 4 6 6 6
0 0 0 2 6 13 20 22 21 17 15 13 12 13 15 15 13 12 14 16 17 16 15 15 17 19 19 21 21 19 17 15 14 11 9 8 8 7 5 4 2 2 2 1 1 1 3 3 3
0 0 0 1 4 8 13 16 13 9 7 7 7 6 6 6 6 5 5 6 7 7 7 8 9 11 11 12 11 11 12 11 8 5 2 1 2 2 2 1 0 0 0 0 0 0 1 1 1
0 0 0 0 1 3 6 8 8 5 4 4 4 2 1 1 2 1 1 2 3 4 6 7 8 8 8 7 5 5 6 5 4 3 1 0 0 0 0 0 0 0 0 0 0 0 0 0 0
0 0 0 0 0 0 1 2 3 2 1 2 2 1 0 0 0 1 1 2 2 2 5 8 8 7 6 4 3 2 2 3 2 2 1 0 0 0 0 0 0 0 0 0 0 0 0 0 0
0 0 0 0 0 0 0 0 0 0 0 0 0 0 0 0 0 1 2 2 1 2 4 6 7 5 4 2 1 1 1 1 1 1 1 0 0 0 0 0 0 0 0 0 0 0 0 0 0
0 0 0 0 0 0 0 0 0 0 0 0 0 0 0 0 1 1 1 1 2 2 3 3 3 3 3 3 2 1 0 0 0 0 0 0 0 0 0 0 0 0 0 0 0 0 0 0 0
0 0 0 0 0 0 0 0 0 0 0 0 0 0 0 0 1 0 0 0 1 1 2 2 1 2 3 3 2 1 0 0 0 0 0 0 0 0 0 0 0 0 0 0 0 0 0 0 0
0 0 0 0 0 0 0 0 0 0 0 0 0 0 0 0 0 0 0 0 0 0 1 1 0 1 2 1 1 0 0 0 0 0 0 0 0 0 0 0 0 0 0 0 0 0 0 0 0
0 0 0 0 0 0 0 0 0 0 0 0 0 0 0 0 0 0 0 0 0 0 0 0 0 0 0 0 0 0 0 0 0 0 0 0 0 0 0 0 0 0 0 0 0 0 0 0 0
0 0 0 0 0 0 0 0 0 0 0 0 0 0 0 0 0 0 0 0 0 0 0 0 0 0 0 0 0 0 0 0 0 0 0 0 0 0 0 0 0 0 0 0 0 0 0 0 0
0 0 0 0 0 0 0 0 0 0 0 0 0 0 0 0 0 0 0 0 0 0 0 0 0 0 0 0 0 0 0 0 0 0 0 0 0 0 0 0 0 0 0 0 0 0 0 0 0
0 0 0 0 0 0 0 0 0 0 0 0 0 0 0 0 0 0 0 0 0 0 0 0 0 0 0 0 0 0 0 0 0 0 0 0 0 0 0 0 0 0 0 0 0 0 0 0 0
Wind_Speed
10 8 3 1 1 0 4 7 3 3 4 4 8 9 7 6 4 5 4 15 19 18 13 16 18 19 19 18 18 17 17 16 16 15 15 15 15 15 15 14 13 13 13 12 12 12 11 11 11
8 7 2 0 1 1 6 5 2 2 3 6 8 8 7 7 9 10 7 14 19 17 12 14 19 19 19 18 18 17 17 16 16 15 15 15 14 14 14 13 12 12 12 11 11 11 11 11 11
7 5 2 1 2 4 5 5 4 3 2 2 4 5 5 6 10 7 10 17 16 14 11 14 20 19 19 18 17 17 17 16 16 15 15 14 14 14 13 12 12 11 11 11 11 11 10 10 10
4 2 1 1 7 8 7 9 5 2 2 3 7 6 4 4 7 12 18 18 16 12 10 14 19 19 18 18 17 16 16 16 15 15 14 14 14 13 13 12 12 11 11 10 10 10 10 10 9
2 2 1 4 8 9 10 11 5 3 2 5 9 7 4 6 18 21 18 17 16 12 9 12 18 18 18 17 16 16 15 15 15 15 14 14 14 13 13 12 12 12 11 11 11 11 10 10 10
1 2 1 5 8 9 8 5 6 6 7 7 9 7 4 11 18 18 17 14 15 15 10 11 18 18 17 16 16 15 15 15 14 14 14 14 13 13 12 12 12 12 12 11 11 11 11 11 11
3 1 4 6 7 8 7 3 5 5 5 5 8 8 6 10 15 16 15 14 13 13 11 8 10 13 16 16 15 15 15 14 13 13 13 13 13 13 12 12 12 13 12 12 13 13 13 12 12
4 1 4 4 6 8 7 4 2 4 4 5 5 8 7 9 14 15 14 13 12 10 9 8 7 7 7 9 14 15 14 14 13 13 13 13 13 12 12 11 11 13 13 13 14 14 14 14 13
1 1 5 5 5 8 10 5 4 5 7 4 5 6 8 12 15 16 14 11 10 9 7 7 7 7 6 6 11 12 13 13 12 11 13 11 6 6 7 11 13 15 15 15 15 15 15 14 14
4 3 9 8 7 8 10 5 1 6 9 7 8 8 11 12 13 14 14 13 10 10 9 8 8 8 7 7 6 4 5 5 5 4 6 5 4 5 7 9 15 16 17 17 17 16 15 12 6
5 8 11 13 14 8 5 4 4 7 6 4 9 9 10 11 9 9 10 11 11 10 10 9 8 8 7 4 5 3 3 3 4 5 5 4 4 4 4 3 6 9 12 9 10 11 7 7 5
5 11 12 13 13 7 4 0 5 7 6 8 11 11 12 11 9 7 7 7 7 8 7 8 8 7 6 5 4 4 3 4 4 5 6 4 3 3 3 3 3 4 4 5 5 5 7 7 8
7 10 11 12 10 5 2 4 8 8 10 12 14 15 14 12 10 8 6 6 7 7 6 5 6 6 5 4 3 4 3 3 3 3 4 5 4 3 2 2 2 3 3 4 5 5 6 7 8
6 7 9 8 7 1 6 6 8 7 11 15 16 14 13 12 10 9 8 7 6 6 6 5 6 5 4 3 2 2 2 2 2 2 2 3 3 2 1 1 2 2 3 3 4 5 6 6 6
5 7 10 7 5 1 8 9 9 7 11 14 14 13 12 10 10 9 7 6 5 5 4 4 5 4 4 3 2 2 2 2 2 1 2 3 3 2 2 1 1 2 2 3 3 4 4 5 6
6 5 5 7 6 4 10 7 6 6 12 11 11 11 10 8 8 7 6 5 5 4 4 4 4 4 3 2 2 1 1 2 2 1 1 2 3 2 1 1 2 2 2 2 2 3 3 4 4
5 4 5 8 7 5 10 6 5 6 10 9 8 9 9 8 7 6 6 5 4 4 5 5 4 4 3 3 2 2 2 1 1 1 1 1 2 2 1 1 2 2 2 2 3 2 3 3 4
3 3 5 6 5 10 11 8 6 7 9 8 5 6 7 7 6 6 6 5 5 5 5 4 4 4 3 3 3 2 2 1 0 0 1 2 2 2 2 1 2 1 1 2 2 3 3 3 4
2 1 2 5 6 9 11 9 8 7 6 6 4 4 4 5 4 5 5 6 5 4 4 3 3 2 2 2 2 1 1 1 1 1 1 1 2 2 2 2 2 1 2 3 3 2 3 3 2
2 2 2 3 5 6 8 9 6 5 3 2 2 3 2 2 3 4 4 4 4 4 4 4 4 3 3 2 2 1 1 1 0 1 1 1 1 2 2 3 2 2 2 2 2 2 2 2 2
2 3 4 4 3 6 5 4 3 2 2 2 1 1 2 4 5 5 5 5 5 5 6 5 5 4 4 3 2 1 2 2 2 2 2 2 3 3 3 4 3 3 2 2 3 2 2 2 2
1 4 5 4 4 2 2 1 3 2 2 2 2 3 5 5 5 5 6 6 6 6 6 5 5 4 3 3 2 2 1 1 2 2 2 3 4 4 4 4 4 4 3 3 3 2 2 2 2
3 3 3 4 5 4 4 2 4 2 2 3 4 6 7 6 6 7 6 6 5 4 4 3 3 3 2 3 3 2 1 2 2 2 3 4 4 4 4 4 4 4 4 4 4 3 3 2 2
8 6 7 6 5 4 2 1 4 3 5 4 4 6 6 6 6 5 4 2 1 1 2 2 3 2 2 2 2 2 3 3 3 3 4 4 3 3 4 4 3 4 4 4 5 4 4 3 3
5 5 4 5 5 1 2 1 6 6 7 7 6 6 5 3 3 2 2 2 2 3 3 3 3 1 1 1 1 2 3 4 4 4 4 3 3 3 4 3 3 3 4 5 4 4 4 4 4
2 7 7 4 3 1 2 2 7 7 6 5 5 4 3 1 1 2 3 3 3 3 3 2 2 1 1 1 2 3 3 2 3 4 3 4 4 4 5 4 4 4 4 5 5 4 5 4 5
1 1 5 8 4 3 1 4 7 4 3 3 3 2 2 2 4 4 4 4 4 3 2 2 2 0 1 2 3 3 3 3 4 4 4 4 4 4 5 4 4 4 5 5 5 4 5 5 5
4 4 5 6 5 3 1 3 5 5 4 3 3 3 3 3 4 4 3 3 3 2 2 2 2 1 2 2 3 2 3 4 4 4 5 5 5 5 5 5 5 5 5 5 5 5 6 6 6
4 4 5 4 6 6 3 5 6 7 6 6 5 5 5 5 4 3 2 2 2 2 1 0 1 2 2 3 3 3 4 4 4 4 5 5 5 5 5 6 6 6 6 6 5 6 6 7 7
2 2 5 5 1 4 5 4 2 7 7 7 6 6 5 5 4 3 2 1 1 0 1 2 2 3 3 3 3 4 4 4 5 5 6 6 6 6 6 6 6 7 7 6 6 7 7 7 8
Wind_Direction
155 146 152 144 73 304 261 261 250 320 0 43 71 84 83 65 113 140 125 142 138 144 149 148 145 142 141 140 139 138 137 136 134 134 133 133 134 135 137 138 140 141 142 143 142 140 137 136 135
150 155 158 137 189 302 266 254 283 272 155 118 84 80 74 73 89 109 117 139 140 142 144 147 146 144 144 144 144 144 143 143 142 142 143 144 144 145 146 146 147 148 149 149 149 147 145 145 146
167 177 153 191 229 216 256 257 238 252 198 136 94 64 70 100 112 120 136 138 135 138 139 148 146 145 146 147 147 148 148 149 150 151 152 153 154 155 155 156 157 157 158 159 158 156 155 156 158
146 140 311 246 253 247 251 268 252 269 35 55 98 63 46 77 112 129 135 138 135 135 138 148 146 147 148 149 150 152 153 154 156 158 159 161 162 163 164 166 168 169 170 169 167 166 166 168 171
102 129 239 269 257 259 261 258 227 179 145 99 99 91 48 44 111 128 137 141 138 136 140 147 147 148 149 151 153 155 158 160 162 164 165 167 170 172 173 176 178 179 178 178 177 177 177 180 184
102 130 208 261 271 280 278 259 143 157 133 121 109 108 92 120 125 137 140 142 141 141 142 146 150 150 152 154 157 160 162 165 167 169 172 175 177 179 181 185 188 188 187 187 187 188 188 191 194
160 186 238 262 293 303 316 349 134 149 141 138 124 106 121 139 142 142 139 138 138 140 142 143 151 153 156 158 161 165 167 171 174 176 178 182 185 188 191 194 197 198 197 197 196 198 199 200 202
181 117 289 295 302 295 309 342 63 107 105 112 108 128 153 156 142 135 129 128 131 136 144 145 147 150 153 160 166 170 172 176 180 183 185 188 192 195 200 202 206 207 207 207 207 206 207 208 209
185 71 269 268 280 289 317 355 41 67 88 65 65 112 137 129 127 127 124 124 134 141 150 152 153 153 152 159 174 175 179 183 186 190 193 194 197 200 207 212 214 217 217 217 216 215 215 215 217
151 202 244 241 259 287 312 331 45 83 71 64 69 77 104 112 121 131 137 140 146 156 165 167 166 165 164 175 169 173 183 186 189 193 199 194 192 205 215 222 224 225 225 224 222 221 220 218 218
196 223 252 265 268 269 293 340 29 103 79 102 114 111 102 100 102 123 139 147 156 161 168 169 171 171 175 174 159 177 185 186 196 203 207 201 200 213 223 220 236 234 232 228 227 225 221 217 211
238 256 257 265 269 263 256 41 58 80 113 107 97 93 88 92 90 103 124 134 135 145 163 161 163 163 170 160 162 173 183 189 198 206 209 201 206 215 220 219 226 227 226 220 219 219 219 220 218
251 261 270 269 273 261 160 99 95 85 98 97 90 79 80 88 86 82 83 99 117 130 140 148 151 154 154 151 164 168 181 187 191 199 208 199 201 212 213 227 231 227 224 221 222 225 226 225 222
262 283 296 295 291 236 104 81 82 84 99 91 82 78 81 86 91 98 94 91 100 108 117 129 139 143 140 146 149 144 145 150 154 168 182 184 183 184 189 231 247 244 234 228 227 228 232 232 228
302 321 322 330 332 36 90 55 64 89 91 88 88 89 85 83 85 88 95 96 92 92 101 118 125 116 115 121 126 115 118 115 113 123 133 154 151 151 147 245 268 260 252 247 245 242 238 238 231
352 1 333 322 1 7 85 85 64 77 92 86 90 92 92 87 86 90 92 90 87 90 82 78 96 94 92 91 88 90 95 100 108 119 131 142 141 143 153 230 257 256 255 256 254 245 242 247 240
13 355 317 322 11 50 80 97 69 54 82 86 89 94 97 96 93 98 101 101 100 99 92 79 79 81 78 67 65 67 66 78 117 146 158 162 148 152 149 243 248 247 251 259 267 252 234 243 247
299 326 330 333 4 67 79 86 59 42 58 66 68 90 97 100 106 115 112 107 103 98 95 93 84 79 73 56 47 39 35 28 25 185 201 187 178 171 169 223 251 243 246 266 271 263 248 240 238
234 335 359 10 24 69 73 68 46 39 45 56 54 66 89 112 131 125 125 123 116 111 110 106 99 92 86 70 62 49 6 338 351 321 251 215 204 199 195 220 233 227 230 248 261 265 264 255 230
86 69 59 44 46 82 82 70 52 29 21 30 67 71 96 132 144 146 144 143 142 148 151 150 152 146 139 143 154 162 185 267 285 335 341 295 255 241 224 216 223 226 228 253 260 251 260 262 219
64 145 168 153 91 64 97 66 29 328 333 281 123 196 203 200 185 174 170 175 172 177 182 177 181 171 164 154 122 67 40 14 8 349 324 299 280 265 252 236 226 223 209 225 237 231 222 252 264
189 195 174 151 115 47 65 154 284 277 294 280 276 231 222 215 198 191 189 192 196 201 192 184 181 174 169 144 121 126 135 219 253 262 274 292 287 278 268 250 236 225 216 217 227 212 205 213 245
173 138 116 114 103 70 23 82 287 311 280 249 246 239 224 211 201 199 199 198 198 192 177 171 161 161 161 144 141 139 172 223 253 276 293 296 295 289 284 264 242 231 223 220 218 214 214 204 212
124 86 60 49 66 51 328 78 286 252 236 240 244 241 230 216 206 204 199 171 155 114 116 125 132 148 163 158 162 174 210 241 271 286 292 294 292 290 294 286 255 242 231 224 220 216 215 217 214
116 106 53 20 26 289 296 10 262 256 244 228 229 235 231 213 187 173 146 109 95 95 108 120 131 163 203 194 217 228 235 242 252 264 266 275 281 282 284 291 267 256 243 237 226 221 224 221 220
179 138 146 163 180 255 335 272 265 262 252 229 220 222 226 207 142 115 115 115 110 110 105 113 129 169 240 243 260 264 259 251 254 255 247 251 250 256 266 270 262 258 256 248 231 228 229 226 228
80 63 147 120 101 98 281 291 297 274 257 236 221 196 173 146 123 115 111 106 100 97 93 112 122 144 278 274 273 273 273 264 261 264 260 259 258 262 265 264 262 259 256 252 238 231 233 226 228
115 138 83 98 126 119 202 234 236 236 227 206 175 159 159 140 119 107 104 104 102 108 108 100 124 216 270 284 282 284 280 275 270 272 273 271 269 269 275 271 265 262 256 249 242 239 235 226 228
6 38 89 104 137 137 171 260 230 191 176 164 167 163 156 143 131 128 129 122 117 112 118 143 289 292 295 291 286 292 289 287 286 281 277 275 272 271 268 266 265 262 259 252 243 240 237 230 231
171 172 129 114 54 118 127 275 282 153 161 155 159 160 153 144 146 148 143 122 99 350 290 283 284 286 282 282 283 283 282 284 284 280 277 275 273 271 266 265 265 264 263 252 243 246 247 233 232